| time (UTC) | temp F | wind direction | speed MPH | gust MPH | rain 1hr in | rain 24hr in | rain mn in | humidity % | barometer mb |
| 20260503213044 | 63 | 318 | 5.0 | 10.0 | 0.00 | 0.00 | 0.00 | 30 | 1012.5 |
| 20260503211532 | 63 | 262 | 5.0 | 14.0 | 0.00 | 0.00 | 0.00 | 31 | 1012.6 |
| 20260503210035 | 63 | 255 | 9.0 | 12.0 | 0.00 | 0.00 | 0.00 | 30 | 1012.5 |
| 20260503204539 | 62 | 269 | 6.0 | 11.0 | 0.00 | 0.00 | 0.00 | 30 | 1012.4 |
| 20260503203041 | 62 | 256 | 9.0 | 16.0 | 0.00 | 0.00 | 0.00 | 31 | 1012.5 |
| 20260503201534 | 62 | 240 | 7.0 | 16.0 | 0.00 | 0.00 | 0.00 | 30 | 1012.8 |
| 20260503200036 | 61 | 247 | 2.0 | 14.0 | 0.00 | 0.00 | 0.00 | 30 | 1012.9 |
| 20260503194534 | 62 | 259 | 8.0 | 23.0 | 0.00 | 0.00 | 0.00 | 31 | 1013.3 |
| 20260503193043 | 61 | 257 | 9.0 | 18.0 | 0.00 | 0.00 | 0.00 | 30 | 1013.6 |
| 20260503191603 | 60 | 252 | 6.0 | 15.0 | 0.00 | 0.00 | 0.00 | 32 | 1013.8 |
| 20260503190039 | 61 | 245 | 3.0 | 11.0 | 0.00 | 0.00 | 0.00 | 34 | 1013.7 |
| 20260503184538 | 60 | 288 | 10.0 | 15.0 | 0.00 | 0.00 | 0.00 | 33 | 1014.0 |
| 20260503183035 | 60 | 9 | 3.0 | 14.0 | 0.00 | 0.00 | 0.00 | 31 | 1014.2 |
| 20260503181545 | 59 | 9 | 9.0 | 16.0 | 0.00 | 0.00 | 0.00 | 33 | 1014.4 |
| 20260503180043 | 59 | 240 | 8.0 | 14.0 | 0.00 | 0.00 | 0.00 | 33 | 1014.6 |
| 20260503174544 | 58 | 272 | 6.0 | 19.0 | 0.00 | 0.00 | 0.00 | 33 | 1014.5 |
| 20260503173035 | 58 | 259 | 7.0 | 16.0 | 0.00 | 0.00 | 0.00 | 33 | 1014.6 |
| 20260503171533 | 58 | 315 | 10.0 | 20.0 | 0.00 | 0.00 | 0.00 | 34 | 1014.6 |
| 20260503081547 | 45 | 302 | 1.0 | 5.0 | 0.00 | 0.00 | 0.00 | 61 | 1012.8 |
| 20260503071544 | 47 | 360 | 5.0 | 15.0 | 0.00 | 0.00 | 0.00 | 56 | 1012.7 |
| 20260503054543 | 49 | 340 | 2.0 | 9.0 | 0.00 | 0.00 | 0.00 | 55 | 1012.0 |
| 20260503053031 | 50 | 342 | 3.0 | 11.0 | 0.00 | 0.00 | 0.00 | 54 | 1012.1 |
| 20260503051529 | 50 | 12 | 8.0 | 13.0 | 0.00 | 0.00 | 0.00 | 53 | 1012.0 |
| 20260503050034 | 50 | 350 | 5.0 | 13.0 | 0.00 | 0.00 | 0.00 | 52 | 1011.6 |
| 20260503044538 | 51 | 5 | 6.0 | 15.0 | 0.00 | 0.00 | 0.00 | 52 | 1011.6 |
| 20260503043042 | 51 | 25 | 6.0 | 23.0 | 0.00 | 0.00 | 0.00 | 51 | 1011.6 |
| 20260503041530 | 52 | 330 | 11.0 | 19.0 | 0.00 | 0.00 | 0.00 | 50 | 1011.6 |
| 20260503040036 | 52 | 24 | 4.0 | 17.0 | 0.00 | 0.00 | 0.00 | 51 | 1011.4 |
| 20260503034536 | 53 | 360 | 5.0 | 15.0 | 0.00 | 0.00 | 0.00 | 51 | 1011.5 |
| 20260503033031 | 53 | 328 | 5.0 | 11.0 | 0.00 | 0.00 | 0.00 | 51 | 1011.2 |
| 20260503031530 | 53 | 334 | 5.0 | 11.0 | 0.00 | 0.00 | 0.00 | 51 | 1011.1 |
| 20260503030037 | 53 | 326 | 4.0 | 14.0 | 0.00 | 0.00 | 0.00 | 51 | 1010.9 |
| 20260503024536 | 54 | 342 | 6.0 | 12.0 | 0.00 | 0.00 | 0.00 | 52 | 1011.1 |
| 20260503023037 | 54 | 360 | 4.0 | 11.0 | 0.00 | 0.00 | 0.00 | 52 | 1011.2 |
| 20260503021532 | 54 | 350 | 4.0 | 9.0 | 0.00 | 0.00 | 0.00 | 51 | 1011.2 |
| 20260503020033 | 54 | 352 | 3.0 | 9.0 | 0.00 | 0.00 | 0.00 | 50 | 1011.2 |
| 20260503014533 | 55 | 18 | 4.0 | 8.0 | 0.00 | 0.00 | 0.00 | 49 | 1011.1 |
| 20260503013038 | 55 | 22 | 4.0 | 6.0 | 0.00 | 0.00 | 0.00 | 48 | 1010.8 |
| 20260503011531 | 55 | 24 | 2.0 | 9.0 | 0.00 | 0.00 | 0.00 | 48 | 1010.7 |
| 20260503010033 | 56 | 9 | 3.0 | 8.0 | 0.00 | 0.00 | 0.00 | 46 | 1010.4 |
| 20260503004535 | 56 | 9 | 4.0 | 8.0 | 0.00 | 0.00 | 0.00 | 46 | 1010.3 |
| 20260503003044 | 56 | 355 | 4.0 | 9.0 | 0.00 | 0.00 | 0.00 | 45 | 1010.2 |
| 20260503001548 | 56 | 9 | 3.0 | 10.0 | 0.00 | 0.00 | 0.00 | 44 | 1010.0 |
| 20260503000044 | 57 | 360 | 3.0 | 9.0 | 0.00 | 0.00 | 0.00 | 44 | 1009.9 |
| 20260502234546 | 57 | 20 | 4.0 | 10.0 | 0.00 | 0.00 | 0.00 | 44 | 1009.5 |
| 20260502233039 | 57 | 9 | 6.0 | 12.0 | 0.00 | 0.00 | 0.00 | 42 | 1009.4 |
| 20260502231532 | 58 | 9 | 8.0 | 13.0 | 0.00 | 0.00 | 0.00 | 42 | 1009.3 |
| 20260502230033 | 58 | 32 | 6.0 | 12.0 | 0.00 | 0.00 | 0.00 | 42 | 1009.1 |
| 20260502224543 | 59 | 18 | 4.0 | 11.0 | 0.00 | 0.00 | 0.00 | 42 | 1009.1 |
| 20260502223040 | 59 | 304 | 3.0 | 10.0 | 0.00 | 0.00 | 0.00 | 42 | 1009.2 |
| 20260502221535 | 59 | 9 | 1.0 | 7.0 | 0.00 | 0.00 | 0.00 | 40 | 1009.1 |
| 20260502220030 | 59 | 51 | 4.0 | 9.0 | 0.00 | 0.00 | 0.00 | 41 | 1009.0 |
| 20260502214540 | 59 | 59 | 8.0 | 15.0 | 0.00 | 0.00 | 0.00 | 40 | 1009.4 |